Time,TemperatureF,DewpointF,PressureIn,WindDirection,WindDirectionDegrees,WindSpeedMPH,WindSpeedGustMPH,Humidity,HourlyPrecipIn,Conditions,Clouds,dailyrainin,SoftwareType,DateUTC
2013-11-12 00:23:00,52.0,28.0,30.02,SW,226,6.0,-999.0,39,-99.99,,,-99.99,,2013-11-12 05:23:00,
2013-11-12 00:54:00,53.0,29.0,30.01,SW,226,4.0,-999.0,40,-99.99,,,-99.99,,2013-11-12 05:54:00,
2013-11-12 01:22:00,52.0,30.0,30.00,SW,226,4.0,-999.0,42,-99.99,,,-99.99,,2013-11-12 06:22:00,
2013-11-12 01:52:00,52.0,30.0,30.00,WSW,242,1.0,-999.0,42,-99.99,,,-99.99,,2013-11-12 06:52:00,
2013-11-12 02:22:00,52.0,30.0,29.99,WSW,240,4.0,-999.0,43,-99.99,,,-99.99,,2013-11-12 07:22:00,
2013-11-12 02:42:00,52.0,30.0,30.00,WSW,239,2.0,-999.0,43,-99.99,,,-99.99,,2013-11-12 07:42:00,
2013-11-12 02:52:00,52.0,31.0,29.99,WSW,239,4.0,-999.0,44,-99.99,,,-99.99,,2013-11-12 07:52:00,
2013-11-12 03:22:00,52.0,30.0,29.99,WSW,239,0.0,-999.0,43,-99.99,,,-99.99,,2013-11-12 08:22:00,
2013-11-12 03:42:00,53.0,31.0,29.98,WSW,239,0.0,-999.0,43,-99.99,,,-99.99,,2013-11-12 08:42:00,
2013-11-12 03:52:00,52.0,31.0,29.98,WSW,239,0.0,-999.0,44,-99.99,,,-99.99,,2013-11-12 08:52:00,
2013-11-12 04:21:00,51.0,30.0,29.99,WSW,239,2.0,-999.0,44,-99.99,,,-99.99,,2013-11-12 09:21:00,
2013-11-12 04:42:00,50.0,28.0,30.00,WNW,297,8.0,-999.0,43,-99.99,,,-99.99,,2013-11-12 09:42:00,
2013-11-12 04:53:00,50.0,28.0,30.01,WNW,283,3.0,-999.0,43,-99.99,,,-99.99,,2013-11-12 09:53:00,
2013-11-12 05:23:00,42.0,27.0,30.04,NNW,332,19.0,-999.0,55,-99.99,,,-99.99,,2013-11-12 10:23:00,
2013-11-12 05:53:00,40.0,27.0,30.06,North,350,5.0,-999.0,60,-99.99,,,-99.99,,2013-11-12 10:53:00,
2013-11-12 06:22:00,38.0,27.0,30.09,NNW,329,12.0,-999.0,65,-99.99,,,-99.99,,2013-11-12 11:22:00,
2013-11-12 06:42:00,37.0,27.0,30.10,NW,322,5.0,-999.0,66,-99.99,,,-99.99,,2013-11-12 11:42:00,
2013-11-12 06:52:00,37.0,27.0,30.11,NW,322,12.0,-999.0,67,-99.99,,,-99.99,,2013-11-12 11:52:00,
2013-11-12 07:22:00,36.0,28.0,30.13,NW,314,7.0,-999.0,73,-99.99,,,-99.99,,2013-11-12 12:22:00,
2013-11-12 07:42:00,35.0,25.0,30.15,NNW,336,7.0,-999.0,66,-99.99,,,-99.99,,2013-11-12 12:42:00,
2013-11-12 07:52:00,35.0,23.0,30.15,North,352,9.0,-999.0,61,-99.99,,,-99.99,,2013-11-12 12:52:00,
2013-11-12 08:22:00,35.0,23.0,30.17,WNW,303,11.0,-999.0,61,-99.99,,,-99.99,,2013-11-12 13:22:00,
2013-11-12 08:42:00,35.0,23.0,30.18,North,353,9.0,-999.0,61,-99.99,,,-99.99,,2013-11-12 13:42:00,
2013-11-12 08:52:00,35.0,23.0,30.19,NW,313,18.0,-999.0,60,-99.99,,,-99.99,,2013-11-12 13:52:00,
2013-11-12 09:22:00,35.0,22.0,30.18,NNW,341,4.0,-999.0,58,-99.99,,,-99.99,,2013-11-12 14:22:00,
2013-11-12 09:52:00,36.0,22.0,30.19,NNW,336,9.0,-999.0,56,-99.99,,,-99.99,,2013-11-12 14:52:00,
2013-11-12 10:22:00,36.0,21.0,30.19,NNW,330,9.0,-999.0,53,-99.99,,,-99.99,,2013-11-12 15:22:00,
2013-11-12 10:53:00,37.0,20.0,30.20,NW,324,8.0,-999.0,50,-99.99,,,-99.99,,2013-11-12 15:53:00,
2013-11-12 11:23:00,37.0,19.0,30.20,NW,314,11.0,-999.0,48,-99.99,,,-99.99,,2013-11-12 16:23:00,
2013-11-12 11:52:00,37.0,18.0,30.20,WNW,302,7.0,-999.0,45,-99.99,,,-99.99,,2013-11-12 16:52:00,
2013-11-12 12:23:00,37.0,16.0,30.20,NW,307,8.0,-999.0,41,-99.99,,,-99.99,,2013-11-12 17:23:00,
2013-11-12 12:52:00,37.0,14.0,30.19,NW,309,18.0,-999.0,38,-99.99,,,-99.99,,2013-11-12 17:52:00,
2013-11-12 13:23:00,37.0,14.0,30.20,WNW,300,11.0,-999.0,38,-99.99,,,-99.99,,2013-11-12 18:23:00,
2013-11-12 13:42:00,37.0,13.0,30.20,NW,318,13.0,-999.0,36,-99.99,,,-99.99,,2013-11-12 18:42:00,
2013-11-12 13:52:00,37.0,13.0,30.21,NW,307,6.0,-999.0,36,-99.99,,,-99.99,,2013-11-12 18:52:00,
2013-11-12 14:22:00,37.0,13.0,30.22,NNW,328,12.0,-999.0,36,-99.99,,,-99.99,,2013-11-12 19:22:00,
2013-11-12 14:42:00,36.0,11.0,30.23,NW,313,11.0,-999.0,35,-99.99,,,-99.99,,2013-11-12 19:42:00,
2013-11-12 14:52:00,36.0,10.0,30.23,NNW,335,10.0,-999.0,33,-99.99,,,-99.99,,2013-11-12 19:52:00,
2013-11-12 15:22:00,36.0,10.0,30.24,NNW,339,3.0,-999.0,34,-99.99,,,-99.99,,2013-11-12 20:22:00,
2013-11-12 15:52:00,36.0,10.0,30.26,NNW,332,8.0,-999.0,34,-99.99,,,-99.99,,2013-11-12 20:52:00,
2013-11-12 16:22:00,37.0,11.0,30.26,North,355,11.0,-999.0,33,-99.99,,,-99.99,,2013-11-12 21:22:00,
2013-11-12 16:44:00,37.0,11.0,30.27,WNW,300,6.0,-999.0,33,-99.99,,,-99.99,,2013-11-12 21:44:00,
2013-11-12 16:54:00,37.0,11.0,30.27,WNW,296,6.0,-999.0,34,-99.99,,,-99.99,,2013-11-12 21:54:00,
2013-11-12 17:24:00,36.0,12.0,30.27,NW,314,12.0,-999.0,36,-99.99,,,-99.99,,2013-11-12 22:24:00,
2013-11-12 17:54:00,36.0,12.0,30.28,WNW,302,10.0,-999.0,36,-99.99,,,-99.99,,2013-11-12 22:54:00,
2013-11-12 18:23:00,36.0,12.0,30.30,NW,313,13.0,-999.0,36,-99.99,,,-99.99,,2013-11-12 23:23:00,
2013-11-12 18:53:00,35.0,11.0,30.30,NW,322,14.0,-999.0,37,-99.99,,,-99.99,,2013-11-12 23:53:00,
2013-11-12 19:22:00,35.0,12.0,30.32,NW,318,7.0,-999.0,38,-99.99,,,-99.99,,2013-11-13 00:22:00,
2013-11-12 19:52:00,34.0,12.0,30.32,NNW,337,11.0,-999.0,39,-99.99,,,-99.99,,2013-11-13 00:52:00,
2013-11-12 20:22:00,34.0,13.0,30.33,NNW,327,4.0,-999.0,41,-99.99,,,-99.99,,2013-11-13 01:22:00,
2013-11-12 20:42:00,33.0,11.0,30.33,NW,309,5.0,-999.0,39,-99.99,,,-99.99,,2013-11-13 01:42:00,
2013-11-12 20:52:00,33.0,11.0,30.33,NW,310,4.0,-999.0,40,-99.99,,,-99.99,,2013-11-13 01:52:00,
2013-11-12 21:22:00,33.0,11.0,30.34,WNW,294,1.0,-999.0,39,-99.99,,,-99.99,,2013-11-13 02:22:00,
2013-11-12 21:42:00,33.0,11.0,30.35,WNW,288,0.0,-999.0,39,-99.99,,,-99.99,,2013-11-13 02:42:00,
2013-11-12 21:52:00,33.0,11.0,30.34,NW,316,0.0,-999.0,40,-99.99,,,-99.99,,2013-11-13 02:52:00,
2013-11-12 22:22:00,32.0,12.0,30.35,NW,320,8.0,-999.0,42,-99.99,,,-99.99,,2013-11-13 03:22:00,
2013-11-12 22:44:00,32.0,12.0,30.35,NW,309,6.0,-999.0,43,-99.99,,,-99.99,,2013-11-13 03:44:00,
2013-11-12 22:54:00,32.0,13.0,30.35,NW,309,8.0,-999.0,44,-99.99,,,-99.99,,2013-11-13 03:54:00,
2013-11-12 23:14:00,31.0,13.0,30.35,NNW,336,4.0,-999.0,46,-99.99,,,-99.99,,2013-11-13 04:14:00,
2013-11-12 23:43:00,31.0,13.0,30.36,WNW,298,6.0,-999.0,47,-99.99,,,-99.99,,2013-11-13 04:43:00,
2013-11-12 23:53:00,31.0,14.0,30.35,NW,307,6.0,-999.0,48,-99.99,,,-99.99,,2013-11-13 04:53:00,